This demonstration page uses our WeatherBlox Daily Observations layout. Learn more.

Hourly Observations for February 18, 2017

Temp ( °F °C ) Dew Point ( °F °C ) Humidity (%) Winds ( mph kmh ) Pressure ( in mb ) Visibility ( mi km ) Precip ( " mm )
12:15 am 00:15 Clear 35 1.5 25 -4.1 67 67 NNE 8 13 29.85 1011 10 16.0934 0 0
12:35 am 00:35 Clear 35 1.6 25 -4 67 67 NNE 7 11 29.85 1011 10 16.0934 0 0
12:55 am 00:55 Clear 33 0.8 25 -4.1 70 70 NE 7 11 29.85 1011 10 16.0934 0 0
1:15 am 01:15 Clear 34 1.3 26 -3.5 71 71 NNE 8 13 29.85 1011 10 16.0934 0 0
1:35 am 01:35 Clear 35 1.4 26 -3.5 70 70 NE 8 13 29.83 1010 10 16.0934 0 0
1:55 am 01:55 Clear 35 1.9 26 -3.2 69 69 NE 5 7 29.85 1011 10 16.0934 0 0
2:15 am 02:15 Clear 36 2.2 26 -3.4 67 67 NNE 3 6 29.85 1011 10 16.0934 0 0
2:35 am 02:35 Clear 35 1.4 25 -3.8 69 69 N 3 6 29.85 1011 10 16.0934 0 0
2:55 am 02:55 Clear 34 1 25 -3.7 71 71 NNE 3 6 29.85 1011 10 16.0934 0 0
3:15 am 03:15 Clear 32 -0.2 25 -4.1 75 75 N 3 6 29.88 1012 10 16.0934 0 0
3:35 am 03:35 Clear 32 -0.1 25 -4.1 75 75 N 3 6 29.88 1012 10 16.0934 0 0
3:55 am 03:55 Clear 30 -1.3 24 -4.6 79 79 N 3 6 29.88 1012 10 16.0934 0 0
4:15 am 04:15 Clear 29 -1.4 24 -4.6 79 79 N 3 6 29.88 1012 10 16.0934 0 0
4:35 am 04:35 Clear 28 -2 23 -5.1 80 80 NNW 5 7 29.88 1012 10 16.0934 0 0
4:55 am 04:55 Clear 30 -1.3 24 -4.4 80 80 NNW 3 6 29.88 1012 10 16.0934 0 0
5:15 am 05:15 Clear 30 -0.9 24 -4.4 77 77 Calm 29.88 1012 10 16.0934 0 0
5:35 am 05:35 Clear 29 -1.5 24 -4.7 79 79 NW 3 6 29.88 1012 10 16.0934 0 0
5:55 am 05:55 Clear 29 -1.6 24 -4.7 80 80 NNW 5 7 29.88 1012 10 16.0934 0 0
6:15 am 06:15 Clear 29 -1.6 23 -4.8 79 79 NNW 5 7 29.88 1012 10 16.0934 0 0
6:35 am 06:35 Clear 28 -2 23 -5 80 80 N 5 7 29.88 1012 10 16.0934 0 0
6:55 am 06:55 Clear 28 -2.4 23 -5 83 83 NW 5 7 29.91 1013 10 16.0934 0 0
7:15 am 07:15 Clear 28 -2.5 23 -5.1 83 83 NNW 3 6 29.91 1013 10 16.0934 0 0
7:35 am 07:35 Sunny 28 -2.5 23 -5 83 83 NW 10 17 29.91 1013 10 16.0934 0 0
7:55 am 07:55 Sunny 28 -2.2 23 -5 81 81 NNW 8 13 29.88 1012 10 16.0934 0 0
8:15 am 08:15 Sunny 31 -0.8 25 -4 79 79 NNW 5 7 29.88 1012 10 16.0934 0 0
8:35 am 08:35 Sunny 33 0.8 27 -2.6 78 78 Calm 29.91 1013 10 16.0934 0 0
8:55 am 08:55 Sunny 37 2.9 29 -1.4 74 74 Calm 29.88 1012 10 16.0934 0 0
9:15 am 09:15 Sunny 42 5.5 32 0 68 68 Calm 29.85 1011 10 16.0934 0 0
9:35 am 09:35 Sunny 46 7.8 32 0 58 58 E 6 9 29.83 1010 10 16.0934 0 0
9:55 am 09:55 Sunny 49 9.2 32 0 53 53 E 9 15 29.83 1010 10 16.0934 0 0
10:15 am 10:15 Sunny 50 10.1 32 0 50 50 E 10 17 29.83 1010 10 16.0934 0 0
10:35 am 10:35 Sunny 53 11.4 32 0 46 46 ESE 12 19 29.8 1009 10 16.0934 0 0
10:55 am 10:55 Sunny 54 12.2 32 0 43 43 E 13 20 29.8 1009 10 16.0934 0 0
11:15 am 11:15 Sunny 56 13.1 32 0 41 41 ESE 13 20 29.8 1009 10 16.0934 0 0
11:35 am 11:35 Sunny 56 13.3 32 0.1 41 41 E 10 17 29.8 1009 10 16.0934 0 0
11:55 am 11:55 Sunny 57 13.9 32 0 39 39 ESE 10 17 29.8 1009 10 16.0934 0 0
12:15 pm 12:15 Sunny 59 14.9 32 -0.1 36 36 ESE 8 13 29.74 1007 10 16.0934 0 0
12:35 pm 12:35 Sunny 60 15.4 31 -0.4 34 34 SE 10 17 29.74 1007 10 16.0934 0 0
12:55 pm 12:55 Sunny 61 15.9 31 -0.4 33 33 SE 8 13 29.74 1007 10 16.0934 0 0
1:15 pm 13:15 Sunny 62 16.4 31 -0.3 32 32 ESE 9 15 29.74 1007 10 16.0934 0 0
1:35 pm 13:35 Sunny 63 17.1 32 -0.1 31 31 SE 9 15 29.74 1007 10 16.0934 0 0
1:55 pm 13:55 Sunny 64 17.5 31 -0.4 30 30 ESE 8 13 29.71 1006 10 16.0934 0 0
2:15 pm 14:15 Sunny 64 17.9 31 -0.5 29 29 ESE 13 20 29.68 1005 10 16.0934 0 0
2:35 pm 14:35 Sunny 65 18.1 31 -0.8 28 28 ESE 14 22 29.68 1005 10 16.0934 0 0
2:55 pm 14:55 Sunny 65 18.5 31 -0.5 28 28 SE 12 19 29.68 1005 10 16.0934 0 0
3:15 pm 15:15 Sunny 65 18.2 31 -0.5 28 28 SE 14 22 29.68 1005 10 16.0934 0 0
3:35 pm 15:35 Sunny 64 18 31 -0.3 29 29 SSE 12 19 29.68 1005 10 16.0934 0 0
3:55 pm 15:55 Sunny 64 17.6 32 0 31 31 SSE 10 17 29.68 1005 10 16.0934 0 0
4:15 pm 16:15 Sunny 64 17.5 32 0 31 31 SE 8 13 29.68 1005 10 16.0934 0 0
4:35 pm 16:35 Sunny 64 17.6 32 0 31 31 SE 12 19 29.68 1005 10 16.0934 0 0
4:55 pm 16:55 Sunny 63 17.2 32 0.2 32 32 SSE 6 9 29.68 1005 10 16.0934 0 0
5:15 pm 17:15 Sunny 62 16.6 33 0.7 34 34 S 7 11 29.71 1006 10 16.0934 0 0
5:35 pm 17:35 Sunny 60 15.8 34 1 37 37 S 5 7 29.71 1006 10 16.0934 0 0
5:55 pm 17:55 Sunny 58 14.6 34 1.2 40 40 SSE 3 6 29.71 1006 10 16.0934 0 0
6:15 pm 18:15 Sunny 57 13.8 34 0.9 42 42 SE 3 6 29.71 1006 10 16.0934 0 0
6:35 pm 18:35 Clear 53 11.7 33 0.8 47 47 SSE 5 7 29.77 1008 10 16.0934 0 0
6:55 pm 18:55 Clear 51 10.7 33 0.7 50 50 SSE 5 7 29.77 1008 10 16.0934 0 0
7:15 pm 19:15 Clear 47 8.2 33 0.7 60 60 SE 3 6 29.8 1009 10 16.0934 0 0
7:35 pm 19:35 Clear 46 7.7 33 0.6 61 61 SE 5 7 29.8 1009 10 16.0934 0 0
7:55 pm 19:55 Clear 47 8.5 34 1.3 61 61 ESE 5 7 29.77 1008 10 16.0934 0 0
8:15 pm 20:15 Clear 43 6.1 32 0.2 66 66 ESE 8 13 29.8 1009 10 16.0934 0 0
8:35 pm 20:35 Clear 44 6.5 33 0.6 66 66 SE 9 15 29.8 1009 10 16.0934 0 0
8:55 pm 20:55 Clear 44 6.9 35 1.4 68 68 SE 8 13 29.77 1008 10 16.0934 0 0
9:15 pm 21:15 Clear 43 6.2 34 1.2 71 71 ESE 10 17 29.8 1009 10 16.0934 0 0
9:35 pm 21:35 Clear 45 7 35 1.6 69 69 SE 9 15 29.77 1008 10 16.0934 0 0
9:55 pm 21:55 Clear 42 5.6 34 1 73 73 SE 6 9 29.83 1010 10 16.0934 0 0
10:15 pm 22:15 Clear 44 6.5 35 1.4 70 70 SSE 3 6 29.83 1010 10 16.0934 0 0
10:35 pm 22:35 Clear 43 5.9 34 1.1 72 72 SSE 7 11 29.83 1010 10 16.0934 0 0
10:55 pm 22:55 Clear 44 6.9 36 2 71 71 SSE 7 11 29.83 1010 10 16.0934 0 0
11:15 pm 23:15 Clear 45 7.4 36 2.2 70 70 SSE 8 13 29.8 1009 10 16.0934 0 0
11:35 pm 23:35 Clear 47 8.1 37 2.5 68 68 S 8 13 29.8 1009 10 16.0934 0 0
11:55 pm 23:55 Clear 47 8.2 37 2.8 69 69 S 9 15 29.8 1009 10 16.0934 0 0

Powered by AerisWeather